Temperature
12 13 14 15 12 10 12 12 12 13 13 15 15 15 14 14 15 15 14 15 15 16 16 16 16 16 16 16 16 16 17 17 17 17 17 17 17 17 16 16 16 16 16 16 16 16 15 15 15
12 13 14 14 10 10 11 12 13 14 14 15 15 14 13 13 14 14 14 15 15 15 16 16 16 16 16 16 16 16 16 16 17 17 17 17 17 16 16 16 16 16 16 16 16 15 15 15 15
12 13 13 9 10 11 13 12 12 14 15 15 14 13 13 13 13 14 14 15 15 15 15 15 15 16 16 16 16 16 16 16 16 16 16 16 16 16 16 16 16 16 16 16 16 15 15 15 15
12 13 12 9 11 11 12 13 12 13 14 14 13 12 12 13 13 13 14 15 15 15 15 15 15 16 16 16 16 16 16 16 16 16 16 16 16 16 16 16 16 16 16 16 15 15 15 15 15
12 12 9 9 10 11 11 12 13 13 13 13 12 11 12 12 13 13 14 14 15 15 15 15 15 15 15 16 16 16 16 16 16 16 16 16 16 16 16 16 16 16 16 15 15 15 15 15 15
12 9 9 9 10 11 11 12 13 12 12 13 12 11 11 12 13 13 14 14 14 15 15 15 15 15 15 15 15 15 15 15 16 16 16 16 16 16 16 16 16 15 15 15 15 15 15 15 15
10 8 9 9 10 12 12 12 12 11 11 12 13 11 11 12 13 13 14 14 14 14 15 15 15 15 15 15 15 15 15 15 15 15 15 15 15 15 15 15 15 15 15 15 15 15 15 15 15
11 8 8 8 10 11 12 12 12 12 11 12 13 11 11 12 12 13 13 14 14 14 14 14 15 15 15 15 15 15 15 15 15 15 15 15 15 15 15 15 15 15 15 15 15 15 15 15 15
11 8 8 9 10 11 11 11 12 12 12 11 12 12 12 12 12 13 13 13 14 14 14 14 14 14 15 15 15 15 15 15 15 15 15 15 15 15 15 15 15 15 15 15 15 15 15 15 15
10 8 9 9 10 10 10 11 11 11 10 10 11 11 12 12 12 13 13 13 13 13 14 14 14 14 14 14 14 14 14 15 15 15 15 15 15 15 15 15 15 15 15 15 15 15 15 15 15
9 8 9 9 10 10 10 10 11 11 10 10 10 11 11 12 12 12 12 12 13 13 13 13 13 14 14 14 14 14 14 14 14 14 14 14 14 14 14 14 14 14 14 14 14 14 14 14 14
8 8 9 9 10 10 10 10 10 10 10 11 11 11 11 12 12 12 12 12 12 12 12 13 13 13 13 14 14 14 14 14 14 14 14 14 14 14 14 14 14 14 14 14 14 14 14 14 14
8 8 9 9 10 10 10 9 9 9 10 10 11 11 11 11 11 11 11 11 12 12 12 12 12 13 13 13 13 13 13 14 14 14 14 14 14 14 14 14 14 14 14 14 14 14 14 14 14
7 8 8 9 9 9 9 9 9 9 10 10 10 10 10 11 11 11 11 11 11 12 12 12 12 12 12 13 13 13 13 13 13 13 13 13 13 13 13 14 14 14 14 14 14 14 14 14 14
8 8 8 8 9 9 9 8 8 9 9 10 10 10 10 10 10 10 10 10 11 11 11 11 12 12 12 12 12 12 12 13 13 13 13 13 13 13 13 13 13 13 13 13 13 13 13 13 13
7 7 7 8 8 9 9 8 8 9 9 9 9 9 9 9 9 9 10 10 10 10 11 11 11 11 11 11 11 12 12 12 12 12 12 12 12 12 12 12 13 13 13 13 13 13 13 13 13
6 6 7 8 8 8 8 8 8 8 9 8 8 9 9 9 9 9 9 9 9 9 10 10 10 11 11 11 11 11 11 11 11 12 12 12 12 12 12 12 12 12 12 12 12 13 12 13 13
6 6 7 7 7 7 7 7 7 8 8 7 8 8 8 8 9 9 9 9 9 9 9 9 10 10 10 10 11 11 11 11 11 11 11 11 11 11 11 11 11 11 12 12 12 12 12 12 12
6 6 7 7 7 7 7 6 6 7 7 7 7 7 8 8 8 8 8 8 9 9 9 9 9 9 10 10 10 10 10 11 11 11 11 11 11 11 11 11 11 11 11 11 11 11 11 12 11
6 6 6 7 7 7 6 6 6 6 6 7 7 7 7 8 8 8 8 8 8 8 8 9 9 9 9 9 9 9 9 10 10 10 10 10 10 10 10 10 10 10 10 11 10 11 11 11 11
6 6 6 7 6 6 6 6 7 6 6 6 7 7 7 7 8 8 8 8 8 8 8 8 8 8 8 8 8 9 9 9 9 10 10 10 10 10 10 10 10 10 10 10 10 10 10 10 10
6 6 7 6 6 5 6 5 6 6 5 5 6 7 7 7 7 7 7 7 7 7 7 7 7 7 8 8 8 8 8 8 9 9 9 9 9 9 9 9 9 9 9 10 10 10 9 9 9
6 6 6 6 5 5 5 5 5 6 6 6 6 7 7 7 7 7 7 7 7 7 7 7 7 7 7 7 7 7 7 8 8 8 8 8 8 8 9 9 9 9 9 9 9 9 9 9 9
6 6 5 4 4 6 6 5 5 5 6 6 6 7 7 7 7 7 7 6 6 6 6 6 6 7 7 7 7 7 7 7 7 7 8 8 8 8 8 8 8 8 8 8 8 8 8 8 8
6 5 4 5 4 5 5 4 5 5 5 6 6 7 7 7 7 7 6 6 6 6 6 6 6 6 6 6 6 6 6 6 6 6 7 7 7 7 7 7 7 8 8 8 8 8 8 8 8
6 5 5 5 5 4 4 4 5 6 6 6 7 7 7 7 7 7 6 6 6 6 6 6 6 6 6 6 6 6 5 5 6 6 6 6 6 6 7 7 7 7 7 7 7 7 7 7 7
6 5 5 4 4 4 4 4 5 5 5 5 6 6 7 7 7 7 6 6 6 6 5 5 5 5 5 5 5 5 5 5 5 5 5 5 5 6 6 6 6 6 7 7 7 7 7 7 7
6 5 4 4 5 5 5 4 4 6 6 5 5 6 7 7 7 7 6 6 6 6 5 5 5 5 5 5 5 5 5 5 5 5 5 5 5 5 5 5 6 6 6 6 6 6 6 6 6
5 5 4 4 4 4 5 5 5 5 6 5 5 6 7 7 7 7 6 6 6 6 5 5 5 5 5 5 5 5 5 4 4 4 4 5 5 5 5 5 5 5 5 5 5 5 5 5 5
5 5 4 4 4 3 3 5 6 5 5 5 6 7 7 7 7 7 6 6 6 6 5 5 5 5 5 5 4 4 4 4 4 4 4 4 4 4 4 5 5 5 5 4 4 4 4 5 4
Wind_Speed
3 4 3 4 5 3 4 5 4 3 3 1 3 6 8 6 4 5 1 5 4 2 2 3 7 8 9 9 9 8 8 8 9 9 10 9 9 8 8 8 8 8 8 8 9 9 9 9 10
2 3 5 5 5 3 5 5 5 4 5 5 5 6 7 5 2 3 3 6 5 3 4 4 6 8 8 8 8 7 7 7 8 8 8 8 8 7 7 7 7 7 8 8 9 9 9 9 10
2 4 4 4 5 7 6 5 6 2 2 3 5 5 5 3 3 2 4 6 4 6 6 6 6 6 7 7 7 7 6 6 6 6 6 7 7 6 7 6 7 7 7 7 8 8 9 9 9
3 4 4 3 5 4 4 2 4 5 3 4 5 6 4 3 2 2 5 4 6 6 7 7 7 6 5 5 6 6 5 5 5 5 5 5 5 5 6 6 7 6 7 7 8 8 9 9 8
4 4 4 2 3 2 2 1 2 4 4 4 5 6 3 5 4 5 6 6 7 6 8 8 8 7 6 4 4 4 4 4 4 3 4 4 4 4 5 6 7 7 7 7 8 8 9 8 8
4 4 4 5 4 1 1 1 2 4 4 4 5 6 3 4 5 6 7 7 7 7 8 9 8 8 7 6 4 2 2 2 2 2 2 2 2 3 4 5 6 7 7 8 8 9 9 9 8
5 4 5 7 5 2 0 2 4 5 5 3 4 6 3 2 4 5 7 7 8 9 9 9 10 8 7 7 6 4 2 0 1 2 1 1 1 2 4 5 6 7 8 8 8 9 9 9 9
4 5 4 4 6 3 0 2 3 4 5 2 3 7 4 1 2 5 7 8 8 8 9 9 9 9 8 7 6 5 5 3 2 2 2 2 2 2 3 5 6 7 8 9 9 9 9 10 10
3 4 4 5 6 4 1 4 4 4 6 5 4 4 4 4 4 7 8 8 8 9 8 8 9 9 9 7 6 7 6 5 4 3 2 2 2 3 3 4 6 7 8 9 10 10 10 10 10
4 4 4 2 3 4 3 5 4 5 7 5 6 6 6 6 7 9 8 8 8 8 8 7 8 8 8 7 7 6 6 6 5 4 3 2 2 3 4 5 6 7 8 9 10 10 10 9 8
4 4 3 2 2 4 4 4 4 7 5 3 4 3 4 7 8 7 6 5 5 5 7 7 7 8 8 6 6 6 5 6 5 5 4 3 2 2 3 3 4 6 7 7 8 8 8 8 8
5 3 3 2 2 4 4 4 5 5 3 3 4 4 5 7 6 5 5 5 5 6 7 7 7 7 8 7 6 5 5 5 5 6 5 3 2 2 2 2 3 4 5 5 6 6 7 8 9
5 3 4 5 8 6 8 7 5 4 3 5 6 7 6 5 4 4 4 4 5 6 7 7 7 7 7 6 6 5 5 4 5 5 5 4 2 2 3 3 4 4 5 5 5 6 6 6 7
5 6 5 6 6 4 7 5 4 1 2 5 6 5 4 4 4 4 6 6 6 6 7 7 7 7 7 5 5 5 6 6 6 5 6 5 4 3 3 3 4 4 5 6 6 6 6 6 6
5 7 7 6 4 3 5 6 2 1 3 5 4 4 4 4 4 4 4 4 5 5 6 7 7 7 7 6 6 6 6 6 5 6 7 7 6 5 4 3 4 5 6 7 6 6 5 5 5
5 6 5 5 4 4 5 2 1 1 5 3 2 2 3 3 3 3 3 3 4 5 6 7 7 8 7 6 6 6 6 6 5 6 7 7 7 6 4 3 5 6 6 5 5 5 5 6 6
6 5 3 3 4 3 4 2 2 1 4 2 1 1 1 2 3 3 3 3 4 5 5 7 7 7 7 7 6 6 5 5 6 6 6 7 8 7 5 4 4 5 4 5 5 5 5 6 6
4 4 3 2 3 4 3 1 3 1 2 2 1 1 0 1 2 3 3 3 4 4 5 6 7 7 7 6 5 4 4 4 5 5 6 8 7 8 6 4 5 4 4 5 5 6 5 5 5
6 6 5 2 2 3 1 2 5 3 1 2 2 2 2 2 3 3 3 4 4 5 6 6 7 7 6 5 4 4 4 4 4 4 6 7 7 7 5 4 4 4 4 5 5 5 6 5 3
7 7 4 3 4 2 1 4 5 3 3 4 4 4 3 3 3 3 3 4 5 5 6 6 6 7 6 5 4 3 4 4 4 4 6 7 7 7 6 4 4 4 5 5 5 5 4 4 4
7 4 3 2 3 5 3 5 3 2 1 2 3 3 3 3 3 3 4 4 5 5 6 6 7 7 7 6 4 4 3 3 3 4 4 6 8 7 6 5 4 4 4 5 5 6 7 6 5
4 2 3 3 3 2 3 3 6 3 3 3 4 4 4 3 3 3 3 4 5 5 5 5 6 6 6 6 5 5 4 4 4 5 5 6 7 7 7 6 5 4 4 4 5 5 6 6 6
3 2 4 3 3 2 1 1 7 2 4 6 6 5 5 4 4 4 4 4 5 4 5 5 6 6 6 6 5 4 4 4 5 5 6 6 6 6 7 6 5 4 4 4 5 5 5 5 6
3 5 5 5 4 2 2 3 7 5 6 5 5 5 5 5 4 4 4 4 4 4 4 5 5 6 6 6 5 5 5 6 6 6 6 5 5 5 6 7 6 5 4 4 4 5 5 5 6
5 5 4 5 4 5 2 3 9 7 6 6 6 6 5 5 4 4 4 4 4 4 4 4 5 6 6 5 5 5 5 5 5 5 5 6 5 5 7 6 6 5 5 4 4 4 4 4 4
2 4 5 3 3 5 2 6 8 5 4 5 5 5 4 5 5 5 5 4 4 4 4 4 4 5 5 5 5 5 5 3 4 5 5 5 4 5 6 6 6 6 6 5 4 3 3 3 4
3 2 3 4 1 3 6 7 8 3 4 4 4 4 5 5 6 6 5 5 4 4 4 3 4 4 4 4 5 4 4 4 4 5 4 4 5 5 6 6 6 6 6 5 4 3 3 3 3
2 5 4 3 1 4 6 6 5 6 6 5 5 6 7 6 6 6 5 5 4 4 3 2 3 3 3 4 4 3 4 4 4 4 4 5 5 5 6 6 6 6 6 6 5 4 4 3 3
3 2 3 2 3 3 5 7 6 7 6 7 8 7 7 7 7 6 6 5 4 3 3 2 2 2 2 3 3 3 4 4 4 4 4 4 5 5 6 6 6 6 6 6 5 5 5 4 4
4 5 5 3 3 4 3 8 5 6 6 6 7 7 6 7 6 6 6 5 4 4 3 3 2 2 2 2 2 3 3 4 4 4 5 5 5 5 5 5 6 6 6 6 6 6 6 5 5
Wind_Direction
40 66 70 60 68 77 209 221 203 175 184 165 109 111 120 117 129 144 236 340 338 343 20 113 123 124 128 130 129 130 129 131 134 136 138 139 139 139 140 141 141 140 141 138 131 127 123 122 120
95 83 61 70 114 166 235 218 194 187 165 124 78 83 84 79 41 66 349 338 353 29 49 85 120 124 127 128 127 129 130 131 134 141 144 145 146 146 148 148 146 144 143 141 136 133 131 128 127
109 63 94 100 151 183 200 201 188 137 113 108 89 66 89 76 11 12 334 330 26 44 48 61 98 119 125 127 128 130 131 132 136 140 148 153 156 158 160 157 152 150 148 148 148 144 141 138 136
96 62 66 107 191 211 206 186 174 140 85 67 104 78 64 18 340 337 336 15 57 48 48 54 75 92 108 119 124 129 131 132 136 140 148 157 168 174 173 166 161 161 161 160 160 158 152 149 147
65 94 101 148 200 232 252 282 140 120 99 72 99 99 63 353 358 17 21 47 58 44 39 48 61 68 74 93 112 124 130 135 140 147 151 161 170 180 180 176 174 176 175 175 173 171 166 164 162
74 88 127 178 186 226 313 339 102 92 96 84 94 100 96 354 17 16 31 51 52 48 39 41 46 53 53 57 62 91 136 147 154 160 165 167 172 177 179 182 184 189 190 188 186 185 181 178 175
118 116 148 160 156 159 91 62 100 106 90 83 115 104 114 15 13 25 43 49 47 42 38 32 33 35 36 38 38 33 24 225 198 202 208 210 204 199 194 193 195 200 200 198 197 196 193 190 187
128 115 115 152 148 166 109 66 69 89 104 59 85 121 141 140 28 43 47 43 40 37 32 26 24 25 22 20 22 20 13 1 310 268 257 257 246 242 225 211 210 208 206 203 203 202 201 199 197
97 89 148 175 162 157 103 89 53 55 84 55 48 85 99 86 62 53 44 33 29 26 20 19 17 15 12 13 13 11 6 0 348 324 303 284 276 261 246 235 228 219 213 210 208 207 207 204 203
89 125 168 171 161 137 84 78 88 78 65 62 59 51 58 64 64 59 48 35 23 11 7 12 9 6 6 6 3 4 3 355 352 344 331 308 282 261 252 245 237 230 223 219 217 216 213 208 202
88 129 135 66 77 109 90 65 45 101 80 120 126 101 65 66 60 57 47 35 16 2 5 3 3 3 6 2 359 359 357 354 350 346 334 318 299 284 271 255 247 241 232 227 226 223 217 208 203
93 60 77 46 55 75 88 89 60 57 106 114 116 106 85 75 62 52 39 21 8 9 1 357 1 3 2 1 355 352 353 351 348 340 337 334 320 299 276 253 246 238 235 230 224 218 218 215 214
88 92 67 66 71 75 81 75 87 55 59 80 86 80 81 79 62 47 40 28 18 11 360 353 355 1 359 358 351 351 343 339 332 333 332 327 309 275 271 260 251 244 239 231 227 223 218 219 220
108 91 70 49 62 54 80 65 76 57 81 88 85 83 80 74 60 43 28 19 12 5 356 349 353 358 358 356 345 341 341 335 334 330 321 313 300 285 267 258 252 249 243 237 230 228 227 227 224
93 82 52 28 44 41 74 49 39 230 116 96 84 79 72 58 51 43 20 10 360 354 352 350 350 357 352 345 339 340 336 336 333 328 321 315 302 287 274 257 251 253 251 243 237 232 229 232 232
58 66 63 3 35 28 85 109 352 26 128 117 90 78 69 44 42 27 12 5 357 354 351 349 353 350 345 340 332 332 334 335 330 326 324 317 309 299 286 262 256 260 252 241 237 233 233 236 237
47 89 94 25 22 48 89 162 309 42 126 138 144 115 79 31 18 7 4 0 354 352 347 346 347 348 340 333 328 325 327 330 327 327 325 319 312 304 292 273 271 267 249 237 241 236 232 238 241
130 116 103 77 4 60 86 234 298 346 141 176 204 207 132 355 326 332 351 354 353 351 349 346 343 344 338 332 329 325 324 327 332 328 324 320 316 309 300 289 280 273 252 246 242 241 237 237 239
119 109 98 58 15 65 100 267 283 280 202 215 228 229 251 273 296 327 347 352 357 357 356 348 345 343 346 343 340 331 323 320 324 327 324 320 318 315 305 295 283 266 253 251 248 242 243 239 228
90 93 83 48 25 63 355 288 274 251 219 216 213 222 233 261 305 324 336 350 351 346 345 342 343 341 342 334 318 295 294 296 296 312 324 326 326 323 318 302 286 272 264 256 248 240 244 244 215
54 96 120 106 24 40 12 320 291 278 243 235 224 225 231 236 266 300 319 325 335 338 338 338 335 336 336 333 326 322 319 316 325 329 329 332 331 327 320 307 291 279 265 265 257 243 237 244 230
65 34 104 90 68 353 45 298 283 268 276 258 247 241 243 251 259 278 300 312 317 318 323 326 330 332 334 337 339 338 335 321 312 319 317 324 330 330 327 318 305 288 277 269 263 256 246 242 244
104 61 74 76 85 17 29 204 284 278 261 257 249 243 244 244 249 266 282 291 301 310 318 322 326 329 335 340 340 335 323 310 311 320 322 328 332 336 336 329 317 303 292 285 278 269 258 248 248
98 62 58 50 59 320 237 190 278 238 227 247 245 241 238 238 244 261 279 289 297 308 319 324 326 329 337 340 341 337 327 324 328 331 332 332 331 334 341 335 326 311 301 293 286 275 264 257 253
60 73 37 9 3 263 250 219 253 248 233 227 237 240 235 230 232 252 271 284 294 306 314 321 326 328 333 336 338 337 330 327 326 326 328 331 332 332 335 334 328 322 315 308 300 288 276 263 258
72 114 142 191 246 287 285 241 254 254 256 243 235 230 224 228 231 242 254 262 272 291 306 314 323 322 330 335 332 335 339 336 328 329 330 329 326 323 328 329 327 327 324 320 313 300 290 274 257
125 128 153 135 184 282 275 280 296 248 260 243 235 230 234 236 236 242 252 254 261 278 288 298 309 317 326 331 330 336 347 342 335 334 336 332 331 331 337 334 335 338 338 335 329 318 314 305 289
133 142 106 128 185 283 292 274 259 264 249 247 244 242 245 241 242 247 249 250 254 261 276 293 301 306 318 330 333 341 341 339 339 342 345 344 341 343 343 347 350 353 355 355 352 343 337 335 324
139 138 134 137 166 194 286 277 230 235 238 236 243 242 239 238 241 243 245 246 248 254 260 270 287 303 322 333 333 339 338 341 351 353 348 347 348 352 356 358 2 6 7 6 4 1 355 354 346
191 189 159 170 225 202 233 272 269 247 250 239 248 250 244 239 240 239 242 244 246 250 251 252 264 277 289 314 341 343 341 350 358 357 353 356 360 1 3 8 11 12 10 10 11 8 6 4 3
Height
1488 1490 1493 1497 1503 1513 1513 1508 1504 1503 1503 1502 1502 1504 1507 1511 1515 1522 1519 1517 1518 1519 1521 1522 1523 1524 1526 1527 1528 1529 1531 1532 1532 1533 1534 1535 1535 1536 1536 1537 1537 1538 1538 1539 1539 1539 1540 1540 1541
1488 1491 1495 1497 1506 1517 1512 1504 1502 1499 1500 1501 1502 1505 1507 1511 1513 1516 1516 1517 1518 1519 1521 1522 1523 1525 1526 1527 1528 1529 1531 1532 1532 1533 1534 1535 1535 1536 1537 1537 1538 1538 1539 1539 1539 1540 1540 1541 1541
1487 1490 1494 1498 1506 1509 1503 1499 1498 1498 1499 1500 1503 1506 1509 1512 1514 1515 1516 1517 1519 1520 1521 1522 1524 1525 1526 1527 1528 1529 1530 1531 1532 1533 1534 1535 1535 1536 1537 1537 1538 1538 1539 1539 1540 1540 1541 1541 1542
1487 1491 1494 1501 1502 1501 1497 1495 1496 1497 1499 1500 1503 1508 1511 1514 1515 1516 1517 1518 1519 1520 1521 1522 1523 1525 1526 1527 1528 1529 1530 1531 1532 1533 1533 1534 1535 1536 1536 1537 1538 1538 1539 1539 1540 1540 1541 1541 1542
1486 1489 1497 1502 1500 1498 1496 1495 1495 1496 1499 1501 1503 1508 1512 1515 1515 1516 1517 1518 1519 1520 1521 1522 1523 1525 1526 1527 1528 1528 1529 1530 1531 1532 1533 1533 1534 1535 1536 1536 1537 1538 1538 1539 1540 1540 1541 1541 1542
1486 1488 1499 1503 1499 1496 1495 1495 1495 1497 1500 1502 1504 1508 1513 1515 1516 1517 1518 1519 1520 1520 1521 1522 1523 1524 1525 1526 1527 1528 1529 1529 1530 1531 1532 1533 1533 1534 1535 1535 1536 1537 1537 1538 1539 1539 1540 1541 1541
1485 1490 1496 1499 1499 1497 1496 1495 1496 1498 1500 1503 1505 1509 1513 1515 1516 1517 1518 1519 1520 1521 1521 1522 1523 1523 1524 1525 1526 1526 1527 1528 1529 1530 1531 1531 1532 1533 1533 1534 1535 1535 1536 1537 1538 1538 1539 1540 1540
1483 1489 1496 1499 1498 1497 1496 1496 1498 1499 1502 1504 1506 1509 1513 1515 1516 1517 1518 1519 1519 1520 1521 1521 1522 1522 1523 1524 1524 1525 1526 1527 1528 1528 1529 1530 1530 1531 1532 1532 1533 1534 1534 1535 1536 1537 1538 1538 1539
1483 1492 1497 1497 1496 1496 1495 1496 1499 1501 1502 1505 1507 1509 1513 1515 1516 1517 1518 1519 1519 1520 1520 1520 1521 1521 1522 1522 1523 1523 1524 1525 1526 1526 1527 1528 1528 1529 1530 1530 1531 1532 1532 1533 1534 1535 1536 1537 1537
1484 1493 1493 1494 1494 1495 1495 1497 1500 1502 1504 1507 1509 1511 1513 1515 1516 1517 1518 1518 1519 1519 1519 1519 1519 1520 1520 1520 1521 1521 1522 1522 1523 1524 1525 1525 1526 1526 1527 1528 1529 1529 1530 1531 1532 1533 1534 1534 1535
1485 1491 1492 1493 1493 1494 1496 1499 1501 1503 1507 1509 1510 1512 1514 1515 1516 1517 1517 1518 1518 1518 1518 1518 1518 1518 1518 1518 1519 1519 1519 1520 1520 1521 1522 1522 1523 1524 1524 1525 1526 1526 1527 1528 1529 1530 1531 1531 1532
1488 1492 1492 1493 1494 1495 1497 1500 1503 1505 1509 1510 1511 1512 1514 1515 1516 1517 1517 1518 1518 1518 1518 1517 1517 1517 1516 1516 1516 1517 1517 1517 1518 1518 1518 1519 1520 1520 1521 1522 1522 1523 1524 1525 1526 1526 1527 1528 1529
1489 1493 1494 1495 1495 1497 1499 1502 1504 1508 1510 1511 1512 1513 1514 1515 1516 1517 1517 1517 1517 1517 1516 1516 1516 1515 1515 1514 1514 1514 1514 1514 1514 1515 1515 1515 1516 1517 1517 1518 1519 1519 1520 1521 1522 1523 1524 1525 1526
1491 1493 1496 1497 1497 1500 1501 1505 1507 1511 1511 1512 1513 1514 1515 1515 1516 1516 1517 1517 1516 1516 1515 1515 1514 1513 1512 1512 1511 1511 1511 1511 1511 1511 1511 1512 1512 1512 1513 1514 1514 1515 1516 1517 1518 1519 1519 1520 1521
1492 1495 1498 1500 1500 1503 1503 1509 1511 1511 1512 1512 1513 1514 1515 1515 1516 1516 1516 1516 1515 1515 1514 1513 1512 1511 1510 1509 1509 1508 1508 1508 1508 1508 1508 1508 1508 1508 1508 1509 1510 1511 1512 1512 1513 1514 1515 1515 1516
1495 1500 1505 1505 1503 1504 1508 1514 1512 1511 1511 1512 1513 1514 1514 1515 1515 1515 1515 1515 1514 1513 1512 1511 1510 1509 1508 1507 1506 1505 1505 1504 1504 1504 1504 1503 1503 1504 1504 1504 1504 1506 1507 1507 1508 1509 1509 1510 1511
1503 1507 1508 1508 1506 1506 1509 1513 1512 1512 1511 1512 1512 1513 1513 1514 1514 1514 1514 1513 1513 1511 1510 1509 1508 1507 1505 1504 1503 1503 1502 1501 1501 1500 1500 1500 1499 1499 1499 1499 1499 1500 1501 1502 1503 1503 1504 1505 1505
1507 1509 1509 1510 1509 1509 1511 1514 1512 1512 1511 1511 1511 1512 1512 1512 1513 1513 1513 1512 1511 1510 1508 1507 1506 1504 1503 1501 1500 1500 1499 1498 1498 1497 1496 1496 1495 1495 1495 1494 1494 1495 1495 1496 1497 1498 1499 1499 1500
1505 1508 1511 1512 1511 1512 1513 1514 1512 1510 1511 1510 1510 1511 1511 1511 1512 1512 1511 1510 1509 1508 1506 1505 1503 1501 1500 1498 1497 1496 1495 1495 1494 1494 1493 1492 1491 1491 1490 1490 1490 1490 1490 1491 1492 1492 1493 1494 1495
1506 1510 1513 1513 1512 1513 1515 1514 1510 1509 1509 1508 1509 1509 1509 1510 1510 1510 1509 1509 1507 1506 1504 1502 1501 1499 1497 1495 1494 1493 1492 1491 1491 1490 1490 1489 1488 1487 1486 1485 1485 1485 1485 1486 1487 1487 1488 1488 1490
1511 1513 1514 1515 1515 1515 1516 1513 1510 1508 1507 1507 1507 1507 1508 1508 1508 1508 1507 1506 1505 1504 1502 1500 1498 1497 1495 1493 1491 1490 1489 1488 1487 1487 1486 1485 1484 1483 1482 1481 1481 1481 1481 1481 1481 1482 1482 1483 1484
1514 1513 1514 1515 1519 1523 1521 1524 1511 1508 1507 1506 1505 1505 1505 1506 1506 1506 1505 1504 1503 1502 1500 1498 1496 1494 1492 1490 1489 1487 1486 1484 1484 1483 1482 1481 1480 1479 1478 1477 1477 1477 1476 1476 1476 1477 1477 1478 1477
1515 1514 1516 1518 1521 1524 1524 1527 1516 1509 1507 1504 1502 1502 1503 1503 1504 1503 1503 1502 1501 1499 1498 1496 1494 1492 1490 1488 1486 1484 1483 1482 1481 1480 1479 1478 1477 1475 1474 1473 1473 1472 1472 1471 1471 1472 1472 1472 1472
1515 1517 1519 1523 1526 1526 1522 1527 1518 1510 1503 1500 1500 1500 1500 1501 1501 1501 1501 1500 1499 1497 1495 1493 1491 1489 1487 1485 1483 1482 1480 1479 1478 1477 1475 1474 1474 1472 1471 1470 1469 1468 1467 1467 1467 1467 1467 1467 1467
1518 1524 1533 1530 1535 1530 1523 1525 1515 1501 1498 1497 1497 1497 1498 1498 1499 1498 1498 1497 1496 1495 1493 1491 1489 1487 1485 1483 1481 1479 1478 1477 1475 1474 1473 1471 1470 1469 1468 1467 1466 1465 1464 1463 1463 1462 1462 1462 1462
1520 1523 1533 1532 1534 1532 1524 1522 1507 1496 1494 1494 1494 1495 1495 1496 1496 1496 1495 1495 1494 1492 1491 1489 1486 1484 1482 1480 1478 1477 1476 1474 1473 1472 1470 1469 1468 1466 1465 1464 1463 1462 1461 1460 1459 1458 1458 1458 1458
1521 1525 1526 1533 1535 1535 1526 1517 1502 1493 1493 1492 1492 1493 1493 1494 1494 1493 1493 1492 1491 1490 1488 1487 1484 1482 1480 1478 1477 1475 1474 1472 1471 1470 1469 1467 1466 1464 1463 1461 1460 1459 1458 1456 1455 1454 1454 1454 1453
1520 1523 1529 1531 1529 1528 1523 1519 1508 1494 1491 1491 1491 1490 1490 1491 1491 1491 1490 1490 1489 1488 1486 1484 1482 1481 1479 1477 1475 1473 1472 1470 1469 1468 1466 1465 1464 1462 1461 1459 1457 1456 1455 1453 1452 1451 1450 1450 1449
1522 1524 1526 1530 1531 1532 1527 1513 1494 1491 1488 1489 1488 1488 1488 1488 1488 1488 1488 1487 1486 1485 1484 1482 1481 1479 1477 1475 1473 1472 1470 1469 1467 1466 1464 1463 1462 1460 1459 1457 1456 1454 1452 1451 1449 1448 1447 1446 1446
1519 1520 1525 1528 1529 1532 1532 1513 1488 1487 1486 1486 1486 1485 1486 1486 1486 1486 1485 1485 1483 1482 1481 1480 1478 1477 1475 1474 1472 1470 1469 1467 1466 1464 1463 1461 1460 1459 1457 1455 1454 1452 1450 1448 1447 1445 1444 1443 1443